Tracking 34706 objects as of 10-Jul-2026
HD Live streaming from Space Station
objects crossing your sky now

ONEWEB-0368

Track ONEWEB-0368 now!
10-day predictions
ONEWEB-0368 is classified as:


NORAD ID: 49294
Int'l Code: 2021-090R
Perigee: 1,187.8 km
Apogee: 1,190.0 km
Inclination: 87.9 °
Period: 109.0 minutes
Semi major axis: 7559 km
RCS: Unknown
Launch date: October 14, 2021
Source: United Kingdom (UK)
Launch site: VOSTOCHNY COSMODROME (VOSTO)
Your satellite tracking list
Your tracking list is empty




NASA's NSSDC Master Catalog

Two Line Element Set (TLE):
1 49294U 21090R   26191.16713905  .00000064  00000-0  12465-3 0  9992
2 49294  87.9178 269.8701 0001474 113.5797 246.5492 13.20771517234018
Source of the keplerian elements: AFSPC